Hourly Weather Lugovskoy

Today, 13 May, Thursday

Time Temperature Precipitation Wind Pressure Humidity
00:00 +16°C° 0 mm 2 mps 751 mmHg 50%
01:00 +15°C° 0 mm 2 mps 751 mmHg 51%
02:00 +15°C° 0 mm 2 mps 751 mmHg 51%
03:00 +14°C° 0 mm 2 mps 751 mmHg 51%
04:00 +14°C° 0 mm 2 mps 751 mmHg 51%
05:00 +15°C° 0 mm 2 mps 751 mmHg 50%
06:00 +17°C° 0 mm 2 mps 751 mmHg 48%
07:00 +18°C° 0 mm 2 mps 752 mmHg 47%
08:00 +20°C° 0 mm 2 mps 752 mmHg 42%
09:00 +22°C° 0 mm 3 mps 752 mmHg 37%
10:00 +25°C° 0 mm 3 mps 752 mmHg 33%
11:00 +26°C° 0 mm 3 mps 752 mmHg 30%
12:00 +26°C° 0 mm 2 mps 752 mmHg 28%
13:00 +27°C° 0 mm 2 mps 751 mmHg 26%
14:00 +27°C° 0 mm 2 mps 751 mmHg 26%
15:00 +28°C° 0 mm 2 mps 751 mmHg 25%
16:00 +28°C° 0 mm 2 mps 751 mmHg 25%
17:00 +27°C° 0 mm 2 mps 751 mmHg 30%
18:00 +25°C° 0 mm 2 mps 750 mmHg 35%
19:00 +24°C° 0 mm 1 mps 750 mmHg 40%
20:00 +23°C° 0 mm 1 mps 750 mmHg 40%
21:00 +21°C° 0 mm 1 mps 751 mmHg 41%
22:00 +20°C° 0 mm 1 mps 751 mmHg 42%
23:00 +19°C° 0 mm 1 mps 751 mmHg 42%

Tomorrow, 14 May, Friday

Time Temperature Precipitation Wind Pressure Humidity
00:00 +19°C° 0 mm 1 mps 751 mmHg 43%
01:00 +18°C° 0 mm 1 mps 751 mmHg 43%
02:00 +18°C° 0 mm 1 mps 751 mmHg 44%
03:00 +18°C° 0 mm 1 mps 751 mmHg 44%
04:00 +16°C° 0 mm 1 mps 751 mmHg 45%
05:00 +19°C° 0 mm 1 mps 751 mmHg 44%
06:00 +20°C° 0 mm 1 mps 751 mmHg 42%
07:00 +22°C° 0 mm 1 mps 752 mmHg 41%
08:00 +23°C° 0 mm 1 mps 752 mmHg 37%
09:00 +25°C° 0 mm 2 mps 752 mmHg 33%
10:00 +27°C° 0 mm 2 mps 752 mmHg 29%
11:00 +28°C° 0 mm 2 mps 752 mmHg 26%
12:00 +29°C° 0 mm 1 mps 752 mmHg 24%
13:00 +29°C° 0 mm 1 mps 751 mmHg 22%
14:00 +29°C° 0 mm 1 mps 751 mmHg 22%
15:00 +30°C° 0 mm 1 mps 751 mmHg 21%
16:00 +30°C° 0 mm 1 mps 751 mmHg 21%
17:00 +28°C° 0 mm 1 mps 751 mmHg 25%
18:00 +27°C° 0 mm 1 mps 750 mmHg 30%
19:00 +24°C° 0 mm 0 mps 750 mmHg 35%
20:00 +24°C° 0 mm 1 mps 750 mmHg 36%
21:00 +23°C° 0 mm 1 mps 750 mmHg 37%
22:00 +21°C° 0 mm 1 mps 750 mmHg 39%
23:00 +21°C° 0 mm 1 mps 750 mmHg 40%

Day after tomorrow, 15 May, Saturday

Time Temperature Precipitation Wind Pressure Humidity
00:00 +20°C° 0 mm 1 mps 750 mmHg 41%
01:00 +20°C° 0 mm 1 mps 750 mmHg 42%
02:00 +19°C° 0 mm 1 mps 750 mmHg 43%
03:00 +19°C° 0 mm 1 mps 750 mmHg 43%
04:00 +19°C° 0 mm 1 mps 750 mmHg 44%
05:00 +20°C° 0 mm 1 mps 750 mmHg 43%
06:00 +22°C° 0 mm 1 mps 750 mmHg 42%
07:00 +23°C° 0 mm 1 mps 750 mmHg 41%
08:00 +25°C° 0 mm 1 mps 750 mmHg 38%
09:00 +27°C° 0 mm 2 mps 750 mmHg 34%
10:00 +28°C° 0 mm 2 mps 750 mmHg 31%
11:00 +29°C° 0 mm 1 mps 750 mmHg 29%
12:00 +30°C° 0 mm 1 mps 750 mmHg 26%
13:00 +29°C° 0 mm 0 mps 749 mmHg 24%
14:00 +31°C° 0 mm 1 mps 749 mmHg 24%
15:00 +31°C° 0 mm 1 mps 749 mmHg 24%
16:00 +31°C° 0 mm 1 mps 749 mmHg 24%
17:00 +29°C° 0 mm 2 mps 749 mmHg 31%
18:00 +28°C° 0 mm 2 mps 748 mmHg 38%
19:00 +26°C° 0 mm 3 mps 748 mmHg 45%
20:00 +25°C° 0 mm 2 mps 748 mmHg 45%
21:00 +24°C° 0 mm 2 mps 748 mmHg 45%
22:00 +23°C° 0 mm 1 mps 748 mmHg 45%
23:00 +22°C° 0 mm 1 mps 748 mmHg 44%

16 May, Sunday

Time Temperature Precipitation Wind Pressure Humidity
00:00 +22°C° 0 mm 1 mps 748 mmHg 44%
01:00 +21°C° 0 mm 1 mps 747 mmHg 44%
02:00 +21°C° 0 mm 1 mps 748 mmHg 45%
03:00 +20°C° 0 mm 1 mps 748 mmHg 46%
04:00 +20°C° 0 mm 1 mps 748 mmHg 47%
05:00 +21°C° 0 mm 1 mps 748 mmHg 46%
06:00 +23°C° 0 mm 1 mps 748 mmHg 45%
07:00 +24°C° 0 mm 1 mps 748 mmHg 45%
08:00 +26°C° 0 mm 2 mps 748 mmHg 41%
09:00 +27°C° 0 mm 2 mps 748 mmHg 37%
10:00 +29°C° 0 mm 2 mps 748 mmHg 34%
11:00 +30°C° 0 mm 2 mps 748 mmHg 31%
12:00 +31°C° 0 mm 1 mps 747 mmHg 28%
13:00 +31°C° 0 mm 1 mps 747 mmHg 25%
14:00 +32°C° 0 mm 1 mps 747 mmHg 25%
15:00 +32°C° 0 mm 1 mps 747 mmHg 24%
16:00 +32°C° 0 mm 1 mps 746 mmHg 24%
17:00 +30°C° 0 mm 1 mps 746 mmHg 29%
18:00 +29°C° 0 mm 1 mps 746 mmHg 33%
19:00 +28°C° 0 mm 1 mps 746 mmHg 38%
20:00 +27°C° 0 mm 1 mps 746 mmHg 40%
21:00 +25°C° 0 mm 2 mps 746 mmHg 42%
22:00 +24°C° 0 mm 3 mps 746 mmHg 43%
23:00 +22°C° 0 mm 3 mps 746 mmHg 45%

17 May, Monday

Time Temperature Precipitation Wind Pressure Humidity
00:00 +22°C° 0 mm 3 mps 746 mmHg 47%
01:00 +21°C° 0 mm 3 mps 746 mmHg 49%
02:00 +20°C° 0 mm 2 mps 746 mmHg 50%
03:00 +20°C° 0 mm 2 mps 746 mmHg 51%
04:00 +20°C° 0 mm 2 mps 746 mmHg 52%
05:00 +21°C° 0 mm 2 mps 746 mmHg 50%
06:00 +23°C° 0 mm 2 mps 746 mmHg 49%
07:00 +24°C° 0 mm 1 mps 746 mmHg 47%
08:00 +26°C° 0 mm 1 mps 746 mmHg 45%
09:00 +27°C° 0 mm 1 mps 746 mmHg 42%
10:00 +28°C° 0 mm 1 mps 746 mmHg 39%
11:00 +29°C° 0 mm 1 mps 746 mmHg 35%
12:00 +30°C° 0 mm 2 mps 746 mmHg 31%
13:00 +31°C° 0 mm 2 mps 745 mmHg 26%
14:00 +31°C° 0 mm 2 mps 745 mmHg 27%
15:00 +31°C° 0 mm 2 mps 745 mmHg 28%
16:00 +30°C° 0 mm 2 mps 745 mmHg 28%
17:00 +29°C° 0.1 mm 3 mps 744 mmHg 35%
18:00 +27°C° 0.1 mm 3 mps 744 mmHg 41%
19:00 +25°C° 0.1 mm 3 mps 744 mmHg 47%
20:00 +24°C° 0 mm 3 mps 744 mmHg 46%
21:00 +23°C° 0 mm 2 mps 744 mmHg 45%
22:00 +21°C° 0 mm 2 mps 744 mmHg 45%
23:00 +21°C° 0 mm 2 mps 744 mmHg 47%

18 May, Tuesday

Time Temperature Precipitation Wind Pressure Humidity
00:00 +20°C° 0 mm 2 mps 744 mmHg 49%
01:00 +21°C° 0 mm 1 mps 744 mmHg 51%
02:00 +21°C° 0 mm 1 mps 744 mmHg 52%
03:00 +20°C° 0 mm 1 mps 744 mmHg 54%
04:00 +18°C° 0 mm 0 mps 744 mmHg 55%
05:00 +19°C° 0 mm 0 mps 744 mmHg 53%
06:00 +21°C° 0 mm 0 mps 744 mmHg 50%
07:00 +22°C° 0 mm 0 mps 744 mmHg 48%
08:00 +24°C° 0 mm 0 mps 744 mmHg 43%
09:00 +27°C° 0 mm 1 mps 744 mmHg 39%
10:00 +29°C° 0 mm 1 mps 744 mmHg 35%
11:00 +30°C° 0 mm 2 mps 744 mmHg 32%
12:00 +31°C° 0 mm 2 mps 744 mmHg 28%
13:00 +33°C° 0 mm 3 mps 744 mmHg 25%
14:00 +33°C° 0 mm 3 mps 744 mmHg 25%
15:00 +33°C° 0 mm 3 mps 744 mmHg 24%
16:00 +33°C° 0 mm 3 mps 744 mmHg 24%
17:00 +30°C° 0 mm 2 mps 744 mmHg 30%
18:00 +29°C° 0 mm 2 mps 744 mmHg 36%
19:00 +27°C° 0 mm 2 mps 744 mmHg 42%
20:00 +26°C° 0 mm 2 mps 744 mmHg 44%
21:00 +24°C° 0 mm 2 mps 744 mmHg 47%
22:00 +23°C° 0 mm 1 mps 744 mmHg 50%
23:00 +23°C° 0 mm 1 mps 744 mmHg 51%
Show more

We Need Your Consent

Meteoprog and our Service Providers may store and access personal data such as cookies, device identifiers or other similar technologies on your device and process such data to personalise content and ads, as well as provide social media features and to analyse the traffic.

  • Store and/or access information on your device

    Cookies, device identifiers or other information can be stored or accessed on your device for the purposes indicated above.

  • Personalised ads and content, ad and content measurement, audience insights, and products development

    Ads and content can be personalised based on a profile. More data can be added to better personalise ads and content. Ad and content performance can be measured. Insights about the audience who saw the ads and content can be derived. Such data can be used to develop or improve user’s experience, systems and software.

By clicking ‘I Agree’ you will allow the use of indicated cookies, device identifiers, web beacons or other similar technologies. Your settings can be changed in the browser on your device.

For certain purposes, legitimate interests may be relied on, rather than consent. You can read more about this in our Privacy and Cookie Policy.